Grand Forks AFB, ND

11:18 AM CST on December 04, 2016 (GMT -0600)
Grand Forks Air Force Base

Weather History for KRDR - November, 2013

Change the Weather History Date:

Sunday, November 3, 2013

  Actual Average Record
Temperature  
Mean Temperature 44 °F -  
Max Temperature 53 °F 40 °F 65 °F (2008)
Min Temperature 35 °F 23 °F 8 °F (2003)
Degree Days  
Heating Degree Days 21    
Moisture  
Dew Point 33 °F    
Average Humidity 64    
Maximum Humidity 91    
Minimum Humidity 42    
Precipitation  
Precipitation 0.00 in - - ()
Sea Level Pressure  
Sea Level Pressure 29.76 in    
Wind  
Wind Speed 13 mph (SSE)    
Max Wind Speed 31 mph    
Max Gust Speed 37 mph    
Visibility 10 miles    
Events      
Averages and records for this station are not official NWS values.
T = Trace of Precipitation, MM = Missing Value Source: NWS Daily Summary

Daily Weather History Graph

Daily Weather History Graph

Search for Another Location

Airport or City:

Trip Planner

Search our weather history database for the weather conditions in past years. The results will help you decide how hot, cold, wet, or windy it might be!

Date:

Astronomy

Nov. 03, 2013 Rise Set
Actual Time 7:17 AM CST 5:07 PM CST
Civil Twilight 6:45 AM CST 5:40 PM CST
Nautical Twilight 6:08 AM CST 6:17 PM CST
Astronomical Twilight 5:32 AM CST 6:53 PM CST
Moon 7:24 AM CST (11/3) 5:21 PM CST (11/3)
Length of Visible Light 10h 55m
Length of Day
9h 49m
New Moon, 0% of the Moon is Illuminated
Nov 3
New Moon
Nov 9
First Quarter
Nov 17
Full
Nov 25
Last Quarter
Dec 2
New

Hourly Weather History & Observations

Time (CST) Temp. Windchill Dew Point Humidity Pressure Visibility Wind Dir Wind Speed Gust Speed Precip Events Conditions
12:58 AM 35.4 °F 29.7 °F 31.1 °F 84% 29.96 in 10.0 mi SSE 6.9 mph - N/A   Clear
1:58 AM 36.3 °F 28.9 °F 31.6 °F 83% 29.96 in 10.0 mi South 10.4 mph - N/A   Scattered Clouds
1:58 AM 37.6 °F 31.6 °F 32.9 °F 83% 29.95 in 10.0 mi South 8.1 mph - N/A   Overcast
2:58 AM 38.1 °F 31.7 °F 33.8 °F 84% 29.94 in 10.0 mi SSE 9.2 mph - N/A   Overcast
3:58 AM 36.9 °F 29.6 °F 33.8 °F 89% 29.90 in 10.0 mi SSE 10.4 mph - N/A   Overcast
4:58 AM 36.7 °F 29.9 °F 34.2 °F 91% 29.89 in 10.0 mi SSE 9.2 mph - N/A   Clear
5:58 AM 36.7 °F 29.4 °F 34.3 °F 91% 29.87 in 10.0 mi SSE 10.4 mph - N/A   Clear
10:58 AM 51.3 °F - 31.8 °F 47% 29.69 in 10.0 mi SE 23.0 mph 31.1 mph N/A   Clear
11:58 AM 52.2 °F - 30.0 °F 43% 29.68 in 10.0 mi SSE 31.1 mph 36.8 mph N/A   Clear
12:58 PM 52.3 °F - 29.8 °F 42% 29.68 in 10.0 mi SSE 24.2 mph 33.4 mph N/A   Clear
1:58 PM 52.2 °F - 30.6 °F 44% 29.65 in 10.0 mi SSE 19.6 mph 36.8 mph N/A   Clear
2:58 PM 52.0 °F - 32.5 °F 48% 29.66 in 10.0 mi SSE 20.7 mph 33.4 mph N/A   Clear
3:58 PM 53.2 °F - 33.3 °F 47% 29.65 in 10.0 mi SSE 21.9 mph 32.2 mph N/A   Clear
4:58 PM 50.9 °F - 33.4 °F 51% 29.65 in 10.0 mi SSE 15.0 mph - N/A   Clear
5:58 PM 48.0 °F - 33.1 °F 56% 29.67 in 10.0 mi SSE 11.5 mph - N/A   Clear
6:58 PM 46.8 °F - 32.7 °F 58% 29.67 in 10.0 mi South 11.5 mph - N/A   Clear
7:58 PM 45.9 °F 40.4 °F 33.1 °F 61% 29.67 in 10.0 mi South 11.5 mph - N/A   Mostly Cloudy
8:58 PM 44.8 °F 39.9 °F 33.1 °F 64% 29.66 in 10.0 mi South 9.2 mph - N/A   Clear
9:58 PM 47.3 °F - 33.6 °F 59% 29.66 in 10.0 mi South 11.5 mph - N/A   Overcast
10:58 PM 47.1 °F - 33.6 °F 59% 29.66 in 10.0 mi SSW 13.8 mph - N/A   Overcast